Home > Time Zones > World Clock > Weather > Mali > Bamako > Past weeks

Flag for Mali Weather past 2 weeks in Bamako, Mali

Now
75 °F

Passing clouds.


Feels Like: 73 °F
Forecast: 72 / 85 °F
Wind: 1 mph from West

Location: Bamako / Senou

Current Time: Aug 22, 2014 at 12:14:29 AM

Latest Report: Aug 21, 2014 at 11:30 PM


Visibility: N/A

Pressure: 30.01 "Hg

Humidity: 100%

Dew point: 75 °F

Location of BamakoLocation

Historic Weather in Bamako — Graph

°F

Bamako temperature yesterday

Maximum temperature yesterday: 91 °F (at 1:30 PM)
Minimum temperature yesterday: 72 °F (at 5:00 AM)
Average temperature yesterday: 80 °F

Past Weeks' High & Low Weather Summary

 TemperatureHumidityPressure
High91 °F (Aug 21, 1:30 PM)100% (Aug 6, 11:30 PM)30.07 "Hg (Aug 6, 11:30 PM)
Low68 °F (Aug 20, 8:00 AM)46% (Aug 21, 1:30 PM)29.86 "Hg (Aug 8, 3:30 PM)
Average79 °F85%29.96 "Hg
* Reported Aug 6 11:00 PM — Aug 21 11:00 PM, Bamako, Weather by CustomWeather, © 2014

Note: Actual official high and low records may vary slightly from our data, if they occured in-between our weather recording intervals... More about our weather records

Advertising

Bamako weather history for previous 24 hours

 ConditionsComfort  
Time TempWeatherWind HumidityBarometerVisibility
11:00 PM
Aug 21
75 °FPassing clouds.3 mph94%30.01 "HgN/A
10:30 PM75 °FPassing clouds.No wind94%30.01 "HgN/A
10:00 PM77 °FPassing clouds.1 mph89%30.01 "HgN/A
9:30 PM75 °FThunderstorms. Passing clouds.No wind94%29.98 "HgN/A
9:00 PM77 °FThunderstorms. Passing clouds.2 mph83%29.98 "HgN/A
8:30 PM77 °FThunderstorms. Partly cloudy.5 mph89%29.98 "HgN/A
8:00 PM77 °FThunderstorms. Partly cloudy.3 mph83%29.95 "HgN/A
7:30 PM77 °FThunderstorms. Partly cloudy.8 mph79%29.95 "HgN/A
7:00 PM79 °FThunderstorms. Partly cloudy.8 mph79%29.95 "HgN/A
6:30 PM82 °FThunderstorms. Scattered clouds.13 mph70%29.92 "HgN/A
6:00 PM86 °FThunderstorms. Scattered clouds.3 mph62%29.89 "HgN/A
5:30 PM88 °FThunderstorms. Scattered clouds.7 mph59%29.89 "HgN/A
5:00 PM90 °FThunderstorms. Scattered clouds.3 mph52%29.89 "HgN/A
4:30 PM90 °FThunderstorms. Scattered clouds.3 mph52%29.89 "HgN/A
4:00 PM88 °FThunderstorms. Partly sunny.6 mph55%29.92 "HgN/A
3:30 PM90 °FThunderstorms. Partly sunny.3 mph52%29.92 "HgN/A
3:00 PM90 °FThunderstorms. Partly sunny.5 mph52%29.92 "HgN/A
2:30 PM90 °FThunderstorms. Partly sunny.1 mph52%29.92 "HgN/A
2:00 PM90 °FPartly sunny.3 mph52%29.95 "HgN/A
1:30 PM91 °FPartly sunny.3 mph46%29.95 "HgN/A
1:00 PM90 °FPartly sunny.2 mph52%29.98 "HgN/A
12:30 PM90 °FScattered clouds.3 mph52%30.01 "HgN/A
12:00 PM88 °FScattered clouds.2 mph59%30.01 "HgN/A
11:30 AM86 °FScattered clouds.3 mph62%30.01 "HgN/A
11:00 AM86 °FScattered clouds.3 mph62%30.04 "HgN/A
10:30 AM84 °FScattered clouds.3 mph66%30.04 "HgN/A
10:00 AM82 °FBroken clouds.5 mph79%30.04 "HgN/A
9:30 AM82 °FBroken clouds.3 mph74%30.04 "HgN/A
9:00 AM81 °FBroken clouds.1 mph79%30.04 "HgN/A
8:30 AM79 °FBroken clouds.2 mph84%30.04 "HgN/A
8:00 AM79 °FBroken clouds.1 mph89%30.04 "HgN/A
7:30 AM77 °FBroken clouds.No wind94%30.01 "HgN/A
7:00 AM72 °FBroken clouds.2 mph100%30.01 "HgN/A
6:30 AM72 °FBroken clouds.2 mph100%29.98 "HgN/A
6:00 AM72 °FPassing clouds.1 mph100%29.98 "HgN/A
5:00 AM72 °FPassing clouds.No wind100%29.98 "HgN/A
4:30 AM73 °FPassing clouds.3 mph100%29.98 "HgN/A
4:00 AM73 °FPassing clouds.2 mph100%29.95 "HgN/A
3:30 AM73 °FPassing clouds.1 mph100%29.95 "HgN/A
3:00 AM73 °FPassing clouds.1 mph100%29.95 "HgN/A
2:30 AM73 °FPassing clouds.No wind100%29.95 "HgN/A
2:00 AM73 °FPassing clouds.No wind100%29.95 "HgN/A
1:30 AM75 °FPartly cloudy.No wind94%29.95 "HgN/A
1:00 AM75 °FThunderstorms. Partly cloudy.5 mph94%29.95 "HgN/A
12:30 AM73 °FThunderstorms. Partly cloudy.5 mph100%29.95 "HgN/A
Weather by CustomWeather, © 2014

See weather overviewHow to use our weather pages